Fitchburg, MA

5:01 AM EDT on April 29, 2017 (GMT -0400)
Fitchburg Municipal

Weather History for KFIT - September, 2013

Change the Weather History Date:

Saturday, September 21, 2013

  Actual Average (KORH) Record (KORH)
Temperature  
Mean Temperature 62 °F -  
Max Temperature 77 °F 66 °F 85 °F (1965)
Min Temperature 48 °F 50 °F 32 °F (1929)
Degree Days  
Heating Degree Days 4    
Growing Degree Days 12 (Base 50)    
Moisture  
Dew Point 55 °F    
Average Humidity 79    
Maximum Humidity 100    
Minimum Humidity 53    
Precipitation  
Precipitation 0.01 in - - ()
Sea Level Pressure  
Sea Level Pressure 29.91 in    
Wind  
Wind Speed 4 mph (South)    
Max Wind Speed 18 mph    
Max Gust Speed 29 mph    
Visibility 9 miles    
Events Rain    
Averages and records for this station are not official NWS values.
T = Trace of Precipitation, MM = Missing Value Source: NWS Daily Summary

Daily Weather History Graph

Daily Weather History Graph

Search for Another Location

Airport or City:

Trip Planner

Search our weather history database for the weather conditions in past years. The results will help you decide how hot, cold, wet, or windy it might be!

Date:

Astronomy

Sep. 21, 2013 Rise Set
Actual Time 6:33 AM EDT 6:45 PM EDT
Civil Twilight 6:05 AM EDT 7:13 PM EDT
Nautical Twilight 5:32 AM EDT 7:46 PM EDT
Astronomical Twilight 4:58 AM EDT 8:20 PM EDT
Moon 7:50 PM EDT (9/21) 8:52 AM EDT (9/21)
Length of Visible Light 13h 08m
Length of Day
12h 12m
Waning Gibbous, 94% of the Moon is Illuminated
Sep 21
Waning Gibbous
Sep 26
Last Quarter
Oct 4
New
Oct 11
First Quarter
Oct 18
Full

Hourly Weather History & Observations

Time (EDT) Temp. Dew Point Humidity Pressure Visibility Wind Dir Wind Speed Gust Speed Precip Events Conditions
12:52 AM 52.0 °F 50.0 °F 93% 30.04 in 8.0 mi Calm Calm - N/A   Clear
1:52 AM 52.0 °F 48.9 °F 89% 30.04 in 10.0 mi Calm Calm - N/A   Clear
2:52 AM 48.9 °F 46.9 °F 93% 30.03 in 10.0 mi Calm Calm - N/A   Clear
3:52 AM 50.0 °F 46.0 °F 86% 30.02 in 10.0 mi Calm Calm - N/A   Clear
4:52 AM 51.1 °F 48.0 °F 89% 30.00 in 10.0 mi Calm Calm - 0.01 in   Partly Cloudy
5:52 AM 48.9 °F 46.0 °F 90% 30.00 in 10.0 mi Calm Calm - N/A   Clear
6:52 AM 48.9 °F 45.0 °F 86% 30.00 in 10.0 mi Calm Calm - N/A   Scattered Clouds
6:59 AM 50.0 °F 46.4 °F 87% 30.00 in 10.0 mi Calm Calm - N/A   Mostly Cloudy
7:11 AM 51.8 °F 48.2 °F 88% 30.00 in 10.0 mi Calm Calm - N/A   Mostly Cloudy
7:27 AM 53.6 °F 51.8 °F 94% 30.00 in 1.8 mi Calm Calm - N/A   Overcast
7:30 AM 53.6 °F 53.6 °F 100% 30.00 in 0.8 mi Calm Calm - N/A   Mist
7:52 AM 55.9 °F 54.0 °F 93% 30.01 in 1.2 mi South 4.6 mph - N/A   Overcast
8:09 AM 55.4 °F 53.6 °F 94% 30.01 in 3.0 mi SSE 5.8 mph - N/A   Overcast
8:24 AM 57.2 °F 55.4 °F 94% 30.00 in 7.0 mi SSE 3.5 mph - N/A   Mostly Cloudy
8:40 AM 57.2 °F 55.4 °F 94% 29.99 in 9.0 mi SE 4.6 mph - N/A   Scattered Clouds
8:52 AM 60.1 °F 55.9 °F 86% 29.99 in 10.0 mi SE 3.5 mph - N/A   Partly Cloudy
9:43 AM 66.2 °F 55.4 °F 68% 29.98 in 10.0 mi South 8.1 mph 17.3 mph N/A   Mostly Cloudy
9:52 AM 66.0 °F 57.0 °F 73% 29.98 in 10.0 mi South 11.5 mph 16.1 mph N/A   Scattered Clouds
10:52 AM 70.0 °F 52.0 °F 53% 29.95 in 10.0 mi South 10.4 mph 17.3 mph N/A   Clear
11:52 AM 73.0 °F 55.9 °F 55% 29.92 in 10.0 mi SSW 11.5 mph 28.8 mph N/A   Mostly Cloudy
12:52 PM 73.0 °F 57.0 °F 57% 29.91 in 10.0 mi South 18.4 mph 24.2 mph N/A   Mostly Cloudy
1:52 PM 73.9 °F 59.0 °F 59% 29.88 in 10.0 mi SSW 13.8 mph 23.0 mph N/A   Overcast
2:52 PM 75.9 °F 60.1 °F 58% 29.85 in 10.0 mi South 16.1 mph - N/A   Mostly Cloudy
3:52 PM 73.9 °F 60.1 °F 62% 29.83 in 10.0 mi South 11.5 mph 24.2 mph N/A   Overcast
4:52 PM 73.9 °F 59.0 °F 59% 29.81 in 10.0 mi South 12.7 mph 20.7 mph N/A   Overcast
5:52 PM 73.0 °F 57.9 °F 59% 29.81 in 10.0 mi South 13.8 mph 20.7 mph N/A   Mostly Cloudy
6:52 PM 72.0 °F 60.1 °F 66% 29.80 in 10.0 mi SSE 8.1 mph - N/A   Mostly Cloudy
7:52 PM 69.1 °F 61.0 °F 75% 29.80 in 10.0 mi South 9.2 mph - N/A   Clear
8:52 PM 68.0 °F 61.0 °F 78% 29.78 in 10.0 mi SSE 6.9 mph - N/A   Scattered Clouds
9:52 PM 69.1 °F 62.1 °F 78% 29.76 in 10.0 mi South 6.9 mph - N/A   Overcast
10:03 PM 69.8 °F 62.6 °F 78% 29.76 in 10.0 mi South 9.2 mph 17.3 mph N/A   Overcast
10:15 PM 69.8 °F 62.6 °F 78% 29.76 in 10.0 mi SSE 6.9 mph - N/A   Mostly Cloudy
10:23 PM 69.8 °F 62.6 °F 78% 29.76 in 10.0 mi SSE 8.1 mph - N/A   Overcast
10:52 PM 69.1 °F 63.0 °F 81% 29.75 in 10.0 mi SSE 6.9 mph - N/A   Overcast
11:52 PM 69.1 °F 64.0 °F 84% 29.73 in 10.0 mi SE 6.9 mph - 0.00 in Rain Light Rain